NOAA 16 DEB, 41531

Orbit data source: Space-Track

NOAA 16 DEB, 41531 is space debris in SSO originally from a launch on Thu, 21 Sep 2000 UTC launched from the Air Force Western Test Range (AFWTR). Debris objects in space refer to the collection of defunct objects orbiting the Earth. Examples of debris include non-operational satellites, rocket bodies, and fragments generated from explosions, collisions, or faulty payload assembly.

Loading next visibility...
Identifier
41531, 2000-055NF
Orbit
SSO
Country
Flag of USUS
Related business
Manufacturer
Unknown
Mission
Spacecraft
Bus & Motor
Unknown
Mass
Unknown
Launch date (UTC)
2000-09-21 (25 years ago)
Launch vehicle
Unknown
Launch site
Air Force Western Test Range (AFWTR)
Object type
Payload
Rocket body
Debris
Shape & HBR
Unknown shape, 0.1 m
Radar Cross Section
Small (<0.1 m²)

Expand to show TLE details & history
Last TLE update: 20 hours ago

TLE from 20 hours ago
0 NOAA 16 DEB
1 41531U 00055NF  25286.77431069  .00003499  00000-0  17578-2 0  9999
2 41531  98.6556 312.0241 0030419 203.4988 156.4799 14.16889075488267
Epoch: 2025-10-13T18:35Z
TLE epoch observation values (Epoch: 2025-10-13T18:35:00.443Z)
Latitude
-0.00001°
Longitude
10.69999°
Altitude
858.941 km
Speed
7.413 km/s
True Right ascension
20h 48m 05s
True Declination
0° 00' 00"
Sunlit
Object was in daylight at epoch
Visualization orbit readout
Latitude
Unknown
Longitude
Unknown
Altitude
Unknown
Speed
Unknown
Apparent Right ascension
Unknown
Apparent Declination
Unknown
Sunlit
N/A
Visualization observer readout
Local Sidereal Time
08:47:33
Azimuth
Unknown
Elevation
Unknown
Doppler factor
Unknown
Orbital elements
Apogee altitude
854.989 km
Perigee altitude
811.117 km
Semi-major axis
7,211.19 km
Eccentricity
0.00304
Inclination
98.6556°
RAAN
312.0241°
Arg. of periapsis
203.4988°
True anomaly
156.61852°
Mean anomaly
156.4799°
Eccentric anomaly
156.54926°
Mean motion
3.54432 °/min
Orbital period
101.57 mins
BSTAR
0.0017578
Loading maneuver chart data...
Computing Atmospheric mass density...

Documentation

Showing up to 5 results
|